#datetime,building,power
2023-04-10T00:00:00,axn,34.60
2023-04-10T00:01:00,axn,33.79
2023-04-10T00:02:00,axn,33.95
2023-04-10T00:03:00,axn,34.09
2023-04-10T00:04:00,axn,33.94
2023-04-10T00:05:00,axn,33.78
2023-04-10T00:06:00,axn,33.89
2023-04-10T00:07:00,axn,34.16
2023-04-10T00:08:00,axn,33.79
2023-04-10T00:09:00,axn,34.03
2023-04-10T00:10:00,axn,33.80
2023-04-10T00:11:00,axn,34.14
2023-04-10T00:12:00,axn,34.19
2023-04-10T00:13:00,axn,34.13
2023-04-10T00:14:00,axn,34.21
2023-04-10T00:15:00,axn,34.17
2023-04-10T00:16:00,axn,34.36
2023-04-10T00:17:00,axn,34.41
2023-04-10T00:18:00,axn,34.39
2023-04-10T00:19:00,axn,34.50
2023-04-10T00:20:00,axn,34.16
2023-04-10T00:21:00,axn,34.44
2023-04-10T00:22:00,axn,34.33
2023-04-10T00:23:00,axn,34.23
2023-04-10T00:24:00,axn,34.28
2023-04-10T00:25:00,axn,34.42
2023-04-10T00:26:00,axn,34.03
2023-04-10T00:27:00,axn,33.99
2023-04-10T00:28:00,axn,34.17
2023-04-10T00:29:00,axn,33.97
2023-04-10T00:30:00,axn,34.30
2023-04-10T00:31:00,axn,34.09
2023-04-10T00:32:00,axn,36.77
2023-04-10T00:33:00,axn,36.94
2023-04-10T00:34:00,axn,37.15
2023-04-10T00:35:00,axn,34.44
2023-04-10T00:36:00,axn,34.38
2023-04-10T00:37:00,axn,33.99
2023-04-10T00:38:00,axn,33.97
2023-04-10T00:39:00,axn,34.06
2023-04-10T00:40:00,axn,34.30
2023-04-10T00:41:00,axn,34.20
2023-04-10T00:42:00,axn,44.64
2023-04-10T00:43:00,axn,40.90
2023-04-10T00:44:00,axn,40.75
2023-04-10T00:45:00,axn,41.01
2023-04-10T00:46:00,axn,30.70
2023-04-10T00:47:00,axn,26.68
2023-04-10T00:48:00,axn,26.21
2023-04-10T00:49:00,axn,26.10
2023-04-10T00:50:00,axn,26.18
2023-04-10T00:51:00,axn,26.07
2023-04-10T00:52:00,axn,29.31
2023-04-10T00:53:00,axn,28.92
2023-04-10T00:54:00,axn,25.95
2023-04-10T00:55:00,axn,25.94
2023-04-10T00:56:00,axn,25.82
2023-04-10T00:57:00,axn,25.87
2023-04-10T00:58:00,axn,25.69
2023-04-10T00:59:00,axn,25.70
2023-04-10T01:00:00,axn,25.77
2023-04-10T01:01:00,axn,25.82
2023-04-10T01:02:00,axn,25.93
2023-04-10T01:03:00,axn,25.99
2023-04-10T01:04:00,axn,26.66
2023-04-10T01:05:00,axn,26.31
2023-04-10T01:06:00,axn,26.10
2023-04-10T01:07:00,axn,26.35
2023-04-10T01:08:00,axn,26.27
2023-04-10T01:09:00,axn,26.57
2023-04-10T01:10:00,axn,26.48
2023-04-10T01:11:00,axn,26.91
2023-04-10T01:12:00,axn,26.44
2023-04-10T01:13:00,axn,26.82
2023-04-10T01:14:00,axn,26.33
2023-04-10T01:15:00,axn,26.31
2023-04-10T01:16:00,axn,26.38
2023-04-10T01:17:00,axn,26.30
2023-04-10T01:18:00,axn,26.27
2023-04-10T01:19:00,axn,26.11
2023-04-10T01:20:00,axn,26.22
2023-04-10T01:21:00,axn,26.19
2023-04-10T01:22:00,axn,26.04
2023-04-10T01:23:00,axn,26.56
2023-04-10T01:24:00,axn,26.25
2023-04-10T01:25:00,axn,26.04
2023-04-10T01:26:00,axn,26.10
2023-04-10T01:27:00,axn,26.03
2023-04-10T01:28:00,axn,26.16
2023-04-10T01:29:00,axn,26.46
2023-04-10T01:30:00,axn,25.97
2023-04-10T01:31:00,axn,26.31
2023-04-10T01:32:00,axn,26.11
2023-04-10T01:33:00,axn,26.08
2023-04-10T01:34:00,axn,26.04
2023-04-10T01:35:00,axn,25.98
2023-04-10T01:36:00,axn,25.90
2023-04-10T01:37:00,axn,25.97
2023-04-10T01:38:00,axn,26.02
2023-04-10T01:39:00,axn,26.00
2023-04-10T01:40:00,axn,26.02
2023-04-10T01:41:00,axn,25.95
2023-04-10T01:42:00,axn,25.91
2023-04-10T01:43:00,axn,26.02
2023-04-10T01:44:00,axn,25.96
2023-04-10T01:45:00,axn,25.86
2023-04-10T01:46:00,axn,25.75
2023-04-10T01:47:00,axn,25.74
2023-04-10T01:48:00,axn,25.62
2023-04-10T01:49:00,axn,25.75
2023-04-10T01:50:00,axn,25.42
2023-04-10T01:51:00,axn,25.32
2023-04-10T01:52:00,axn,33.25
2023-04-10T01:53:00,axn,25.47
2023-04-10T01:54:00,axn,33.67
2023-04-10T01:55:00,axn,33.95
2023-04-10T01:56:00,axn,33.94
2023-04-10T01:57:00,axn,33.88
2023-04-10T01:58:00,axn,33.61
2023-04-10T01:59:00,axn,33.54
2023-04-10T02:00:00,axn,33.51
2023-04-10T02:01:00,axn,33.65
2023-04-10T02:02:00,axn,33.79
2023-04-10T02:03:00,axn,33.73
2023-04-10T02:04:00,axn,33.80
2023-04-10T02:05:00,axn,33.99
2023-04-10T02:06:00,axn,33.87
2023-04-10T02:07:00,axn,33.75
2023-04-10T02:08:00,axn,33.75
2023-04-10T02:09:00,axn,33.75
2023-04-10T02:10:00,axn,33.67
2023-04-10T02:11:00,axn,33.81
2023-04-10T02:12:00,axn,33.67
2023-04-10T02:13:00,axn,33.90
2023-04-10T02:14:00,axn,33.52
2023-04-10T02:15:00,axn,33.64
2023-04-10T02:16:00,axn,33.66
2023-04-10T02:17:00,axn,33.68
2023-04-10T02:18:00,axn,33.60
2023-04-10T02:19:00,axn,34.22
2023-04-10T02:20:00,axn,34.06
2023-04-10T02:21:00,axn,33.81
2023-04-10T02:22:00,axn,33.75
2023-04-10T02:23:00,axn,33.77
2023-04-10T02:24:00,axn,33.72
2023-04-10T02:25:00,axn,33.87
2023-04-10T02:26:00,axn,33.53
2023-04-10T02:27:00,axn,25.58
2023-04-10T02:28:00,axn,25.15
2023-04-10T02:29:00,axn,25.09
2023-04-10T02:30:00,axn,25.09
2023-04-10T02:31:00,axn,24.94
2023-04-10T02:32:00,axn,25.40
2023-04-10T02:33:00,axn,25.54
2023-04-10T02:34:00,axn,25.50
2023-04-10T02:35:00,axn,26.06
2023-04-10T02:36:00,axn,25.47
2023-04-10T02:37:00,axn,25.96
2023-04-10T02:38:00,axn,25.55
2023-04-10T02:39:00,axn,25.50
2023-04-10T02:40:00,axn,25.51
2023-04-10T02:41:00,axn,25.45
2023-04-10T02:42:00,axn,25.34
2023-04-10T02:43:00,axn,25.77
2023-04-10T02:44:00,axn,25.30
2023-04-10T02:45:00,axn,25.57
2023-04-10T02:46:00,axn,25.21
2023-04-10T02:47:00,axn,25.26
2023-04-10T02:48:00,axn,25.40
2023-04-10T02:49:00,axn,24.96
2023-04-10T02:50:00,axn,25.09
2023-04-10T02:51:00,axn,25.67
2023-04-10T02:52:00,axn,25.04
2023-04-10T02:53:00,axn,24.90
2023-04-10T02:54:00,axn,24.94
2023-04-10T02:55:00,axn,25.17
2023-04-10T02:56:00,axn,25.25
2023-04-10T02:57:00,axn,25.13
2023-04-10T02:58:00,axn,25.09
2023-04-10T02:59:00,axn,25.38
2023-04-10T03:00:00,axn,25.61
2023-04-10T03:01:00,axn,25.20
2023-04-10T03:02:00,axn,25.20
2023-04-10T03:03:00,axn,25.11
2023-04-10T03:04:00,axn,25.00
2023-04-10T03:05:00,axn,25.32
2023-04-10T03:06:00,axn,25.19
2023-04-10T03:07:00,axn,25.42
2023-04-10T03:08:00,axn,25.16
2023-04-10T03:09:00,axn,24.96
2023-04-10T03:10:00,axn,25.12
2023-04-10T03:11:00,axn,25.15
2023-04-10T03:12:00,axn,24.75
2023-04-10T03:13:00,axn,24.85
2023-04-10T03:14:00,axn,24.92
2023-04-10T03:15:00,axn,24.99
2023-04-10T03:16:00,axn,25.07
2023-04-10T03:17:00,axn,24.89
2023-04-10T03:18:00,axn,25.00
2023-04-10T03:19:00,axn,24.88
2023-04-10T03:20:00,axn,25.01
2023-04-10T03:21:00,axn,24.90
2023-04-10T03:22:00,axn,24.96
2023-04-10T03:23:00,axn,32.42
2023-04-10T03:24:00,axn,24.99
2023-04-10T03:25:00,axn,24.94
2023-04-10T03:26:00,axn,27.68
2023-04-10T03:27:00,axn,28.45
2023-04-10T03:28:00,axn,33.73
2023-04-10T03:29:00,axn,30.97
2023-04-10T03:30:00,axn,31.10
2023-04-10T03:31:00,axn,25.26
2023-04-10T03:32:00,axn,25.22
2023-04-10T03:33:00,axn,25.05
2023-04-10T03:34:00,axn,24.98
2023-04-10T03:35:00,axn,24.94
2023-04-10T03:36:00,axn,24.83
2023-04-10T03:37:00,axn,24.64
2023-04-10T03:38:00,axn,24.67
2023-04-10T03:39:00,axn,25.29
2023-04-10T03:40:00,axn,24.66
2023-04-10T03:41:00,axn,24.72
2023-04-10T03:42:00,axn,24.69
2023-04-10T03:43:00,axn,24.84
2023-04-10T03:44:00,axn,24.63
2023-04-10T03:45:00,axn,24.64
2023-04-10T03:46:00,axn,24.70
2023-04-10T03:47:00,axn,24.77
2023-04-10T03:48:00,axn,24.72
2023-04-10T03:49:00,axn,24.82
2023-04-10T03:50:00,axn,24.83
2023-04-10T03:51:00,axn,24.83
2023-04-10T03:52:00,axn,27.74
2023-04-10T03:53:00,axn,24.94
2023-04-10T03:54:00,axn,25.00
2023-04-10T03:55:00,axn,25.18
2023-04-10T03:56:00,axn,25.20
2023-04-10T03:57:00,axn,25.09
2023-04-10T03:58:00,axn,24.91
2023-04-10T03:59:00,axn,24.87
2023-04-10T04:00:00,axn,24.86
2023-04-10T04:01:00,axn,24.96
2023-04-10T04:02:00,axn,25.62
2023-04-10T04:03:00,axn,24.76
2023-04-10T04:04:00,axn,24.88
2023-04-10T04:05:00,axn,24.81
2023-04-10T04:06:00,axn,24.73
2023-04-10T04:07:00,axn,24.86
2023-04-10T04:08:00,axn,24.93
2023-04-10T04:09:00,axn,24.98
2023-04-10T04:10:00,axn,25.46
2023-04-10T04:11:00,axn,25.19
2023-04-10T04:12:00,axn,25.23
2023-04-10T04:13:00,axn,25.94
2023-04-10T04:14:00,axn,25.51
2023-04-10T04:15:00,axn,25.48
2023-04-10T04:16:00,axn,25.73
2023-04-10T04:17:00,axn,25.68
2023-04-10T04:18:00,axn,25.79
2023-04-10T04:19:00,axn,25.52
2023-04-10T04:20:00,axn,25.66
2023-04-10T04:21:00,axn,25.58
2023-04-10T04:22:00,axn,25.64
2023-04-10T04:23:00,axn,25.63
2023-04-10T04:24:00,axn,25.62
2023-04-10T04:25:00,axn,26.02
2023-04-10T04:26:00,axn,40.36
2023-04-10T04:27:00,axn,40.14
2023-04-10T04:28:00,axn,40.14
2023-04-10T04:29:00,axn,39.89
2023-04-10T04:30:00,axn,39.70
2023-04-10T04:31:00,axn,25.41
2023-04-10T04:32:00,axn,25.64
2023-04-10T04:33:00,axn,28.23
2023-04-10T04:34:00,axn,28.08
2023-04-10T04:35:00,axn,28.31
2023-04-10T04:36:00,axn,28.05
2023-04-10T04:37:00,axn,28.09
2023-04-10T04:38:00,axn,28.07
2023-04-10T04:39:00,axn,25.42
2023-04-10T04:40:00,axn,25.27
2023-04-10T04:41:00,axn,25.29
2023-04-10T04:42:00,axn,25.34
2023-04-10T04:43:00,axn,25.26
2023-04-10T04:44:00,axn,25.29
2023-04-10T04:45:00,axn,25.15
2023-04-10T04:46:00,axn,25.05
2023-04-10T04:47:00,axn,25.01
2023-04-10T04:48:00,axn,25.07
2023-04-10T04:49:00,axn,25.70
2023-04-10T04:50:00,axn,25.76
2023-04-10T04:51:00,axn,26.36
2023-04-10T04:52:00,axn,25.80
2023-04-10T04:53:00,axn,26.76
2023-04-10T04:54:00,axn,26.40
2023-04-10T04:55:00,axn,26.42
2023-04-10T04:56:00,axn,26.95
2023-04-10T04:57:00,axn,27.07
2023-04-10T04:58:00,axn,27.01
2023-04-10T04:59:00,axn,27.31
2023-04-10T05:00:00,axn,27.31
2023-04-10T05:01:00,axn,23.55
2023-04-10T05:02:00,axn,39.01
2023-04-10T05:03:00,axn,23.31
2023-04-10T05:04:00,axn,23.11
2023-04-10T05:05:00,axn,23.87
2023-04-10T05:06:00,axn,23.02
2023-04-10T05:07:00,axn,23.01
2023-04-10T05:08:00,axn,23.26
2023-04-10T05:09:00,axn,23.26
2023-04-10T05:10:00,axn,47.01
2023-04-10T05:11:00,axn,23.15
2023-04-10T05:12:00,axn,23.01
2023-04-10T05:13:00,axn,23.29
2023-04-10T05:14:00,axn,22.97
2023-04-10T05:15:00,axn,22.97
2023-04-10T05:16:00,axn,25.25
2023-04-10T05:17:00,axn,26.97
2023-04-10T05:18:00,axn,27.04
2023-04-10T05:19:00,axn,27.15
2023-04-10T05:20:00,axn,27.23
2023-04-10T05:21:00,axn,27.34
2023-04-10T05:22:00,axn,27.48
2023-04-10T05:23:00,axn,27.49
2023-04-10T05:24:00,axn,27.77
2023-04-10T05:25:00,axn,27.24
2023-04-10T05:26:00,axn,27.49
2023-04-10T05:27:00,axn,27.85
2023-04-10T05:28:00,axn,27.23
2023-04-10T05:29:00,axn,27.21
2023-04-10T05:30:00,axn,38.14
2023-04-10T05:31:00,axn,30.03
2023-04-10T05:32:00,axn,30.24
2023-04-10T05:33:00,axn,30.40
2023-04-10T05:34:00,axn,30.26
2023-04-10T05:35:00,axn,30.18
2023-04-10T05:36:00,axn,30.54
2023-04-10T05:37:00,axn,30.07
2023-04-10T05:38:00,axn,30.03
2023-04-10T05:39:00,axn,30.03
2023-04-10T05:40:00,axn,30.15
2023-04-10T05:41:00,axn,36.02
2023-04-10T05:42:00,axn,36.00
2023-04-10T05:43:00,axn,36.00
2023-04-10T05:44:00,axn,30.09
2023-04-10T05:45:00,axn,29.90
2023-04-10T05:46:00,axn,30.17
2023-04-10T05:47:00,axn,30.27
2023-04-10T05:48:00,axn,29.95
2023-04-10T05:49:00,axn,29.94
2023-04-10T05:50:00,axn,30.28
2023-04-10T05:51:00,axn,30.35
2023-04-10T05:52:00,axn,30.14
2023-04-10T05:53:00,axn,30.16
2023-04-10T05:54:00,axn,30.12
2023-04-10T05:55:00,axn,30.20
2023-04-10T05:56:00,axn,29.65
2023-04-10T05:57:00,axn,30.15
2023-04-10T05:58:00,axn,31.10
2023-04-10T05:59:00,axn,31.39
2023-04-10T06:00:00,axn,31.30
2023-04-10T06:01:00,axn,30.83
2023-04-10T06:02:00,axn,31.25
2023-04-10T06:03:00,axn,32.47
2023-04-10T06:04:00,axn,31.32
2023-04-10T06:05:00,axn,31.15
2023-04-10T06:06:00,axn,31.26
2023-04-10T06:07:00,axn,31.55
2023-04-10T06:08:00,axn,31.36
2023-04-10T06:09:00,axn,31.82
2023-04-10T06:10:00,axn,31.37
2023-04-10T06:11:00,axn,33.46
2023-04-10T06:12:00,axn,33.42
2023-04-10T06:13:00,axn,34.73
2023-04-10T06:14:00,axn,34.55
2023-04-10T06:15:00,axn,34.53
2023-04-10T06:16:00,axn,33.87
2023-04-10T06:17:00,axn,34.65
2023-04-10T06:18:00,axn,33.94
2023-04-10T06:19:00,axn,33.83
2023-04-10T06:20:00,axn,33.79
2023-04-10T06:21:00,axn,33.90
2023-04-10T06:22:00,axn,34.18
2023-04-10T06:23:00,axn,34.14
2023-04-10T06:24:00,axn,33.64
2023-04-10T06:25:00,axn,33.79
2023-04-10T06:26:00,axn,33.43
2023-04-10T06:27:00,axn,33.52
2023-04-10T06:28:00,axn,33.51
2023-04-10T06:29:00,axn,33.90
2023-04-10T06:30:00,axn,33.50
2023-04-10T06:31:00,axn,33.21
2023-04-10T06:32:00,axn,33.16
2023-04-10T06:33:00,axn,33.03
2023-04-10T06:34:00,axn,33.11
2023-04-10T06:35:00,axn,33.32
2023-04-10T06:36:00,axn,33.20
2023-04-10T06:37:00,axn,33.14
2023-04-10T06:38:00,axn,33.18
2023-04-10T06:39:00,axn,33.35
2023-04-10T06:40:00,axn,33.46
2023-04-10T06:41:00,axn,33.13
2023-04-10T06:42:00,axn,35.99
2023-04-10T06:43:00,axn,35.76
2023-04-10T06:44:00,axn,35.68
2023-04-10T06:45:00,axn,32.88
2023-04-10T06:46:00,axn,46.74
2023-04-10T06:47:00,axn,32.38
2023-04-10T06:48:00,axn,32.38
2023-04-10T06:49:00,axn,32.60
2023-04-10T06:50:00,axn,32.51
2023-04-10T06:51:00,axn,32.97
2023-04-10T06:52:00,axn,32.76
2023-04-10T06:53:00,axn,32.46
2023-04-10T06:54:00,axn,32.36
2023-04-10T06:55:00,axn,32.67
2023-04-10T06:56:00,axn,32.60
2023-04-10T06:57:00,axn,32.78
2023-04-10T06:58:00,axn,43.24
2023-04-10T06:59:00,axn,42.95
2023-04-10T07:00:00,axn,42.69
2023-04-10T07:01:00,axn,43.16
2023-04-10T07:02:00,axn,33.89
2023-04-10T07:03:00,axn,34.09
2023-04-10T07:04:00,axn,33.48
2023-04-10T07:05:00,axn,34.39
2023-04-10T07:06:00,axn,34.64
2023-04-10T07:07:00,axn,37.20
2023-04-10T07:08:00,axn,34.28
2023-04-10T07:09:00,axn,34.32
2023-04-10T07:10:00,axn,34.34
2023-04-10T07:11:00,axn,34.55
2023-04-10T07:12:00,axn,34.75
2023-04-10T07:13:00,axn,34.16
2023-04-10T07:14:00,axn,34.66
2023-04-10T07:15:00,axn,34.32
2023-04-10T07:16:00,axn,34.00
2023-04-10T07:17:00,axn,33.93
2023-04-10T07:18:00,axn,33.77
2023-04-10T07:19:00,axn,33.93
2023-04-10T07:20:00,axn,33.95
2023-04-10T07:21:00,axn,34.15
2023-04-10T07:22:00,axn,33.82
2023-04-10T07:23:00,axn,33.95
2023-04-10T07:24:00,axn,34.03
2023-04-10T07:25:00,axn,33.85
2023-04-10T07:26:00,axn,34.08
2023-04-10T07:27:00,axn,33.98
2023-04-10T07:28:00,axn,33.79
2023-04-10T07:29:00,axn,34.36
2023-04-10T07:30:00,axn,33.92
2023-04-10T07:31:00,axn,34.06
2023-04-10T07:32:00,axn,33.45
2023-04-10T07:33:00,axn,33.77
2023-04-10T07:34:00,axn,34.05
2023-04-10T07:35:00,axn,33.79
2023-04-10T07:36:00,axn,33.82
2023-04-10T07:37:00,axn,33.66
2023-04-10T07:38:00,axn,33.48
2023-04-10T07:39:00,axn,33.31
2023-04-10T07:40:00,axn,33.74
2023-04-10T07:41:00,axn,33.45
2023-04-10T07:42:00,axn,33.34
2023-04-10T07:43:00,axn,33.84
2023-04-10T07:44:00,axn,33.76
2023-04-10T07:45:00,axn,33.51
2023-04-10T07:46:00,axn,33.26
2023-04-10T07:47:00,axn,33.28
2023-04-10T07:48:00,axn,33.14
2023-04-10T07:49:00,axn,33.35
2023-04-10T07:50:00,axn,33.43
2023-04-10T07:51:00,axn,33.29
2023-04-10T07:52:00,axn,47.54
2023-04-10T07:53:00,axn,47.56
2023-04-10T07:54:00,axn,47.34
2023-04-10T07:55:00,axn,47.21
2023-04-10T07:56:00,axn,47.17
2023-04-10T07:57:00,axn,33.31
2023-04-10T07:58:00,axn,33.50
2023-04-10T07:59:00,axn,33.34
2023-04-10T08:00:00,axn,33.45
2023-04-10T08:01:00,axn,33.59
2023-04-10T08:02:00,axn,37.30
2023-04-10T08:03:00,axn,37.73
2023-04-10T08:04:00,axn,38.30
2023-04-10T08:05:00,axn,38.30
2023-04-10T08:06:00,axn,37.95
2023-04-10T08:07:00,axn,38.09
2023-04-10T08:08:00,axn,38.49
2023-04-10T08:09:00,axn,38.86
2023-04-10T08:10:00,axn,38.49
2023-04-10T08:11:00,axn,39.32
2023-04-10T08:12:00,axn,39.16
2023-04-10T08:13:00,axn,38.62
2023-04-10T08:14:00,axn,38.57
2023-04-10T08:15:00,axn,38.96
2023-04-10T08:16:00,axn,38.36
2023-04-10T08:17:00,axn,38.79
2023-04-10T08:18:00,axn,38.63
2023-04-10T08:19:00,axn,38.73
2023-04-10T08:20:00,axn,38.59
2023-04-10T08:21:00,axn,38.77
2023-04-10T08:22:00,axn,38.75
2023-04-10T08:23:00,axn,38.98
2023-04-10T08:24:00,axn,38.79
2023-04-10T08:25:00,axn,39.00
2023-04-10T08:26:00,axn,39.25
2023-04-10T08:27:00,axn,38.83
2023-04-10T08:28:00,axn,38.73
2023-04-10T08:29:00,axn,38.67
2023-04-10T08:30:00,axn,38.73
2023-04-10T08:31:00,axn,38.66
2023-04-10T08:32:00,axn,38.73
2023-04-10T08:33:00,axn,38.52
2023-04-10T08:34:00,axn,38.66
2023-04-10T08:35:00,axn,39.19
2023-04-10T08:36:00,axn,38.70
2023-04-10T08:37:00,axn,39.40
2023-04-10T08:38:00,axn,38.96
2023-04-10T08:39:00,axn,38.83
2023-04-10T08:40:00,axn,40.11
2023-04-10T08:41:00,axn,39.42
2023-04-10T08:42:00,axn,40.01
2023-04-10T08:43:00,axn,39.72
2023-04-10T08:44:00,axn,40.67
2023-04-10T08:45:00,axn,39.89
2023-04-10T08:46:00,axn,40.39
2023-04-10T08:47:00,axn,40.68
2023-04-10T08:48:00,axn,40.84
2023-04-10T08:49:00,axn,41.19
2023-04-10T08:50:00,axn,39.62
2023-04-10T08:51:00,axn,39.95
2023-04-10T08:52:00,axn,41.43
2023-04-10T08:53:00,axn,39.30
2023-04-10T08:54:00,axn,40.01
2023-04-10T08:55:00,axn,39.23
2023-04-10T08:56:00,axn,40.14
2023-04-10T08:57:00,axn,40.29
2023-04-10T08:58:00,axn,40.41
2023-04-10T08:59:00,axn,40.37
2023-04-10T09:00:00,axn,39.81
2023-04-10T09:01:00,axn,39.96
2023-04-10T09:02:00,axn,40.03
2023-04-10T09:03:00,axn,39.93
2023-04-10T09:04:00,axn,40.29
2023-04-10T09:05:00,axn,40.05
2023-04-10T09:06:00,axn,40.14
2023-04-10T09:07:00,axn,40.31
2023-04-10T09:08:00,axn,40.55
2023-04-10T09:09:00,axn,39.90
2023-04-10T09:10:00,axn,40.11
2023-04-10T09:11:00,axn,44.66
2023-04-10T09:12:00,axn,47.39
2023-04-10T09:13:00,axn,50.33
2023-04-10T09:14:00,axn,47.55
2023-04-10T09:15:00,axn,41.36
2023-04-10T09:16:00,axn,40.03
2023-04-10T09:17:00,axn,39.98
2023-04-10T09:18:00,axn,40.30
2023-04-10T09:19:00,axn,40.24
2023-04-10T09:20:00,axn,40.61
2023-04-10T09:21:00,axn,40.15
2023-04-10T09:22:00,axn,40.01
2023-04-10T09:23:00,axn,40.11
2023-04-10T09:24:00,axn,40.05
2023-04-10T09:25:00,axn,40.19
2023-04-10T09:26:00,axn,39.94
2023-04-10T09:27:00,axn,40.48
2023-04-10T09:28:00,axn,39.88
2023-04-10T09:29:00,axn,39.63
2023-04-10T09:30:00,axn,39.47
2023-04-10T09:31:00,axn,39.73
2023-04-10T09:32:00,axn,40.04
2023-04-10T09:33:00,axn,40.68
2023-04-10T09:34:00,axn,40.52
2023-04-10T09:35:00,axn,39.76
2023-04-10T09:36:00,axn,40.19
2023-04-10T09:37:00,axn,39.96
2023-04-10T09:38:00,axn,40.08
2023-04-10T09:39:00,axn,40.16
2023-04-10T09:40:00,axn,40.22
2023-04-10T09:41:00,axn,39.74
2023-04-10T09:42:00,axn,39.72
2023-04-10T09:43:00,axn,39.97
2023-04-10T09:44:00,axn,39.84
2023-04-10T09:45:00,axn,40.90
2023-04-10T09:46:00,axn,40.95
2023-04-10T09:47:00,axn,41.79
2023-04-10T09:48:00,axn,42.36
2023-04-10T09:49:00,axn,42.27
2023-04-10T09:50:00,axn,41.53
2023-04-10T09:51:00,axn,41.66
2023-04-10T09:52:00,axn,41.83
2023-04-10T09:53:00,axn,41.88
2023-04-10T09:54:00,axn,42.05
2023-04-10T09:55:00,axn,42.46
2023-04-10T09:56:00,axn,42.54
2023-04-10T09:57:00,axn,41.89
2023-04-10T09:58:00,axn,42.02
2023-04-10T09:59:00,axn,41.80
2023-04-10T10:00:00,axn,42.17
2023-04-10T10:01:00,axn,42.41
2023-04-10T10:02:00,axn,42.26
2023-04-10T10:03:00,axn,42.32
2023-04-10T10:04:00,axn,42.13
2023-04-10T10:05:00,axn,42.28
2023-04-10T10:06:00,axn,43.07
2023-04-10T10:07:00,axn,41.90
2023-04-10T10:08:00,axn,42.23
2023-04-10T10:09:00,axn,42.09
2023-04-10T10:10:00,axn,41.75
2023-04-10T10:11:00,axn,55.80
2023-04-10T10:12:00,axn,55.65
2023-04-10T10:13:00,axn,55.91
2023-04-10T10:14:00,axn,55.27
2023-04-10T10:15:00,axn,55.02
2023-04-10T10:16:00,axn,41.35
2023-04-10T10:17:00,axn,41.51
2023-04-10T10:18:00,axn,41.98
2023-04-10T10:19:00,axn,43.46
2023-04-10T10:20:00,axn,42.16
2023-04-10T10:21:00,axn,42.45
2023-04-10T10:22:00,axn,44.38
2023-04-10T10:23:00,axn,43.83
2023-04-10T10:24:00,axn,45.62
2023-04-10T10:25:00,axn,44.87
2023-04-10T10:26:00,axn,44.54
2023-04-10T10:27:00,axn,41.83
2023-04-10T10:28:00,axn,42.27
2023-04-10T10:29:00,axn,41.50
2023-04-10T10:30:00,axn,41.78
2023-04-10T10:31:00,axn,41.58
2023-04-10T10:32:00,axn,41.78
2023-04-10T10:33:00,axn,41.91
2023-04-10T10:34:00,axn,42.06
2023-04-10T10:35:00,axn,41.90
2023-04-10T10:36:00,axn,43.53
2023-04-10T10:37:00,axn,41.45
2023-04-10T10:38:00,axn,41.83
2023-04-10T10:39:00,axn,42.06
2023-04-10T10:40:00,axn,41.51
2023-04-10T10:41:00,axn,41.78
2023-04-10T10:42:00,axn,41.69
2023-04-10T10:43:00,axn,40.86
2023-04-10T10:44:00,axn,41.32
2023-04-10T10:45:00,axn,41.67
2023-04-10T10:46:00,axn,47.08
2023-04-10T10:47:00,axn,44.22
2023-04-10T10:48:00,axn,43.87
2023-04-10T10:49:00,axn,43.95
2023-04-10T10:50:00,axn,41.16
2023-04-10T10:51:00,axn,41.02
2023-04-10T10:52:00,axn,40.96
2023-04-10T10:53:00,axn,41.06
2023-04-10T10:54:00,axn,41.49
2023-04-10T10:55:00,axn,40.81
2023-04-10T10:56:00,axn,40.70
2023-04-10T10:57:00,axn,40.93
2023-04-10T10:58:00,axn,40.77
2023-04-10T10:59:00,axn,41.37
2023-04-10T11:00:00,axn,40.58
2023-04-10T11:01:00,axn,40.57
2023-04-10T11:02:00,axn,41.52
2023-04-10T11:03:00,axn,41.15
2023-04-10T11:04:00,axn,41.17
2023-04-10T11:05:00,axn,40.85
2023-04-10T11:06:00,axn,43.90
2023-04-10T11:07:00,axn,43.06
2023-04-10T11:08:00,axn,43.16
2023-04-10T11:09:00,axn,43.38
2023-04-10T11:10:00,axn,41.02
2023-04-10T11:11:00,axn,40.83
2023-04-10T11:12:00,axn,40.52
2023-04-10T11:13:00,axn,40.90
2023-04-10T11:14:00,axn,40.52
2023-04-10T11:15:00,axn,40.30
2023-04-10T11:16:00,axn,40.67
2023-04-10T11:17:00,axn,40.13
2023-04-10T11:18:00,axn,40.01
2023-04-10T11:19:00,axn,40.31
2023-04-10T11:20:00,axn,40.93
2023-04-10T11:21:00,axn,40.11
2023-04-10T11:22:00,axn,39.77
2023-04-10T11:23:00,axn,39.76
2023-04-10T11:24:00,axn,39.84
2023-04-10T11:25:00,axn,39.71
2023-04-10T11:26:00,axn,40.69
2023-04-10T11:27:00,axn,50.82
2023-04-10T11:28:00,axn,51.96
2023-04-10T11:29:00,axn,51.02
2023-04-10T11:30:00,axn,50.97
2023-04-10T11:31:00,axn,50.47
2023-04-10T11:32:00,axn,41.12
2023-04-10T11:33:00,axn,40.83
2023-04-10T11:34:00,axn,40.16
2023-04-10T11:35:00,axn,40.15
2023-04-10T11:36:00,axn,40.08
2023-04-10T11:37:00,axn,40.39
2023-04-10T11:38:00,axn,56.75
2023-04-10T11:39:00,axn,39.74
2023-04-10T11:40:00,axn,40.79
2023-04-10T11:41:00,axn,51.41
2023-04-10T11:42:00,axn,39.74
2023-04-10T11:43:00,axn,39.98
2023-04-10T11:44:00,axn,40.56
2023-04-10T11:45:00,axn,40.67
2023-04-10T11:46:00,axn,55.14
2023-04-10T11:47:00,axn,39.87
2023-04-10T11:48:00,axn,40.74
2023-04-10T11:49:00,axn,40.40
2023-04-10T11:50:00,axn,40.30
2023-04-10T11:51:00,axn,40.42
2023-04-10T11:52:00,axn,40.75
2023-04-10T11:53:00,axn,40.55
2023-04-10T11:54:00,axn,40.53
2023-04-10T11:55:00,axn,40.96
2023-04-10T11:56:00,axn,40.68
2023-04-10T11:57:00,axn,41.48
2023-04-10T11:58:00,axn,41.93
2023-04-10T11:59:00,axn,41.05
2023-04-10T12:00:00,axn,41.20
2023-04-10T12:01:00,axn,41.45
2023-04-10T12:02:00,axn,41.51
2023-04-10T12:03:00,axn,44.47
2023-04-10T12:04:00,axn,44.25
2023-04-10T12:05:00,axn,41.11
2023-04-10T12:06:00,axn,41.99
2023-04-10T12:07:00,axn,40.99
2023-04-10T12:08:00,axn,41.34
2023-04-10T12:09:00,axn,41.31
2023-04-10T12:10:00,axn,41.32
2023-04-10T12:11:00,axn,41.74
2023-04-10T12:12:00,axn,41.45
2023-04-10T12:13:00,axn,41.52
2023-04-10T12:14:00,axn,41.26
2023-04-10T12:15:00,axn,41.48
2023-04-10T12:16:00,axn,41.53
2023-04-10T12:17:00,axn,41.82
2023-04-10T12:18:00,axn,41.82
2023-04-10T12:19:00,axn,41.90
2023-04-10T12:20:00,axn,44.23
2023-04-10T12:21:00,axn,44.34
2023-04-10T12:22:00,axn,44.24
2023-04-10T12:23:00,axn,41.47
2023-04-10T12:24:00,axn,47.45
2023-04-10T12:25:00,axn,47.32
2023-04-10T12:26:00,axn,47.53
2023-04-10T12:27:00,axn,41.83
2023-04-10T12:28:00,axn,42.28
2023-04-10T12:29:00,axn,42.15
2023-04-10T12:30:00,axn,41.38
2023-04-10T12:31:00,axn,41.18
2023-04-10T12:32:00,axn,43.26
2023-04-10T12:33:00,axn,41.26
2023-04-10T12:34:00,axn,42.26
2023-04-10T12:35:00,axn,42.63
2023-04-10T12:36:00,axn,42.26
2023-04-10T12:37:00,axn,42.36
2023-04-10T12:38:00,axn,42.13
2023-04-10T12:39:00,axn,41.73
2023-04-10T12:40:00,axn,41.65
2023-04-10T12:41:00,axn,41.39
2023-04-10T12:42:00,axn,42.30
2023-04-10T12:43:00,axn,42.07
2023-04-10T12:44:00,axn,58.82
2023-04-10T12:45:00,axn,41.89
2023-04-10T12:46:00,axn,41.04
2023-04-10T12:47:00,axn,41.02
2023-04-10T12:48:00,axn,40.70
2023-04-10T12:49:00,axn,40.74
2023-04-10T12:50:00,axn,40.78
2023-04-10T12:51:00,axn,40.83
2023-04-10T12:52:00,axn,40.44
2023-04-10T12:53:00,axn,40.45
2023-04-10T12:54:00,axn,40.57
2023-04-10T12:55:00,axn,40.59
2023-04-10T12:56:00,axn,40.50
2023-04-10T12:57:00,axn,40.43
2023-04-10T12:58:00,axn,40.50
2023-04-10T12:59:00,axn,40.38
2023-04-10T13:00:00,axn,40.84
2023-04-10T13:01:00,axn,41.36
2023-04-10T13:02:00,axn,40.63
2023-04-10T13:03:00,axn,39.97
2023-04-10T13:04:00,axn,40.14
2023-04-10T13:05:00,axn,39.18
2023-04-10T13:06:00,axn,39.29
2023-04-10T13:07:00,axn,39.35
2023-04-10T13:08:00,axn,39.45
2023-04-10T13:09:00,axn,39.01
2023-04-10T13:10:00,axn,38.93
2023-04-10T13:11:00,axn,38.72
2023-04-10T13:12:00,axn,39.56
2023-04-10T13:13:00,axn,38.88
2023-04-10T13:14:00,axn,39.36
2023-04-10T13:15:00,axn,40.37
2023-04-10T13:16:00,axn,40.04
2023-04-10T13:17:00,axn,39.83
2023-04-10T13:18:00,axn,40.43